Weather History for Moncks Corner, SC

Change the Weather History Date:

Tuesday, February 26, 2013

  Actual Average (KCHS) Record (KCHS)
Temperature  
Mean Temperature 60 °F 54 °F  
Max Temperature 75 °F 65 °F 83 °F (1996)
Min Temperature 46 °F 43 °F 14 °F (1967)
Degree Days  
Heating Degree Days 4 11  
Month to date heating degree days 356  
Since 1 July heating degree days 1615  
Cooling Degree Days 0 0  
Month to date cooling degree days 0  
Year to date cooling degree days 2  
Growing Degree Days 10 (Base 50)    
Moisture  
Dew Point 54 °F    
Average Humidity 85    
Maximum Humidity 94    
Minimum Humidity 65    
Precipitation  
Precipitation 1.96 in 0.10 in 1.88 in (2013)
Month to date precipitation 2.75  
Year to date precipitation 6.46  
Sea Level Pressure  
Sea Level Pressure 29.73 in    
Wind  
Wind Speed 9 mph (SE)    
Max Wind Speed 24 mph    
Max Gust Speed 37 mph    
Visibility 6 miles    
Events Rain , Thunderstorm    
T = Trace of Precipitation, MM = Missing Value Source: NWS Daily Summary

Daily Weather History Graph

Daily Weather History Graph

Search for Another Location

Airport:

Trip Planner

Search our weather history database for the weather conditions in past years. The results will help you decide how hot, cold, wet, or windy it might be!

Date:

Astronomy

Feb. 26, 2013 Rise Set
Actual Time 6:51 AM EST 6:14 PM EST
Civil Twilight 6:26 AM EST 6:39 PM EST
Nautical Twilight 5:57 AM EST 7:08 PM EST
Astronomical Twilight 5:29 AM EST 7:37 PM EST
Moon 7:23 PM EST (2/26) 6:58 AM EST (2/26)
Length of Visible Light 12h 13m
Length of Day
11h 23m
Full, 99% of the Moon is Illuminated
Feb 26
Full
Mar 4
Last Quarter
Mar 11
New
Mar 19
First Quarter
Mar 27
Full

Hourly Weather History & Observations

Time (EST) Temp. Windchill Dew Point Humidity Pressure Visibility Wind Dir Wind Speed Gust Speed Precip Events Conditions
12:15 AM 46.4 °F 42.4 °F 41.0 °F 81% 29.98 in 10.0 mi ENE 8.1 mph - N/A   Overcast
12:35 AM 46.4 °F 41.1 °F 41.0 °F 81% 29.97 in 10.0 mi ENE 11.5 mph - N/A   Overcast
12:55 AM 46.4 °F 42.4 °F 42.8 °F 87% 29.97 in 10.0 mi ENE 8.1 mph - N/A   Overcast
1:15 AM 46.4 °F 41.5 °F 42.8 °F 87% 29.96 in 7.0 mi East 10.4 mph - N/A   Overcast
1:35 AM 46.4 °F 41.9 °F 42.8 °F 87% 29.95 in 10.0 mi NE 9.2 mph - N/A   Overcast
1:55 AM 46.4 °F 42.4 °F 44.6 °F 93% 29.95 in 10.0 mi ENE 8.1 mph - N/A Rain Light Rain
2:15 AM 46.4 °F 41.5 °F 44.6 °F 93% 29.93 in 7.0 mi ENE 10.4 mph - 0.01 in Rain Rain
2:35 AM 46.4 °F 41.9 °F 44.6 °F 93% 29.91 in 7.0 mi ENE 9.2 mph - 0.02 in Rain Light Rain
2:55 AM 48.2 °F - 46.4 °F 93% 29.90 in 5.0 mi ENE 8.1 mph - 0.03 in Rain Rain
3:15 AM 48.2 °F - 44.6 °F 87% 29.90 in 5.0 mi NE 5.8 mph - N/A   Drizzle
3:35 AM 46.4 °F 42.9 °F 44.6 °F 93% 29.88 in 4.0 mi NE 6.9 mph - 0.01 in Rain Light Rain
3:55 AM 46.4 °F 43.5 °F 44.6 °F 93% 29.87 in 4.0 mi NNE 5.8 mph - 0.02 in Rain Rain
4:15 AM 46.4 °F 43.5 °F 44.6 °F 93% 29.87 in 4.0 mi NE 5.8 mph - N/A Rain Light Rain
4:35 AM 48.2 °F - 46.4 °F 93% 29.85 in 3.0 mi ENE 8.1 mph - 0.07 in Rain Heavy Rain
4:55 AM 48.2 °F - 46.4 °F 93% 29.83 in 5.0 mi ENE 8.1 mph - 0.13 in Rain Light Rain
5:15 AM 48.2 °F - 46.4 °F 93% 29.84 in 7.0 mi NE 5.8 mph - 0.01 in Rain Light Rain
5:35 AM 48.2 °F - 46.4 °F 93% 29.81 in 7.0 mi ENE 12.7 mph 19.6 mph 0.03 in Rain Light Rain
5:55 AM 50.0 °F - 48.2 °F 94% 29.81 in 7.0 mi ENE 8.1 mph - 0.03 in Rain Light Rain
6:15 AM 50.0 °F - 48.2 °F 94% 29.80 in 7.0 mi East 9.2 mph - N/A   Overcast
6:35 AM 50.0 °F - 48.2 °F 94% 29.79 in 7.0 mi East 8.1 mph - N/A   Light Drizzle
6:55 AM 51.8 °F - 50.0 °F 94% 29.78 in 5.0 mi East 6.9 mph - 0.01 in Rain Light Rain
7:15 AM 51.8 °F - 50.0 °F 94% 29.78 in 5.0 mi East 8.1 mph - N/A   Light Drizzle
7:35 AM 51.8 °F - 50.0 °F 94% 29.75 in 4.0 mi ENE 6.9 mph - 0.03 in Rain Rain
7:55 AM 53.6 °F - 51.8 °F 94% 29.76 in 2.5 mi ENE 8.1 mph - 0.10 in Rain Rain
8:15 AM 53.6 °F - 51.8 °F 94% 29.77 in 3.0 mi NE 6.9 mph - 0.06 in Rain Heavy Rain
8:35 AM 55.4 °F - 53.6 °F 94% 29.76 in 1.2 mi NNE 9.2 mph - 0.24 in Rain Heavy Rain
8:55 AM 57.2 °F - 55.4 °F 94% 29.77 in 1.5 mi Calm Calm - 0.47 in Rain , Thunderstorm Thunderstorms and Rain
9:15 AM 57.2 °F - 55.4 °F 94% 29.75 in 2.5 mi NNE 5.8 mph - 0.13 in Rain Heavy Rain
9:35 AM 57.2 °F - 55.4 °F 94% 29.77 in 0.8 mi NW 5.8 mph - 0.48 in Rain Heavy Rain
9:55 AM 57.2 °F - 55.4 °F 94% 29.78 in 4.0 mi NE 3.5 mph - 0.75 in Rain Rain
10:15 AM 59.0 °F - 57.2 °F 94% 29.78 in 1.5 mi SE 3.5 mph - 0.16 in Rain Heavy Rain
10:35 AM 59.0 °F - 57.2 °F 94% 29.72 in 1.0 mi ENE 4.6 mph - 0.32 in Rain Light Rain
10:55 AM 60.8 °F - 59.0 °F 94% 29.71 in 4.0 mi ESE 3.5 mph - 0.35 in Rain Rain
11:15 AM 62.6 °F - 60.8 °F 94% - 5.0 mi Calm Calm - 0.04 in Rain , Thunderstorm Light Thunderstorms and Rain
11:35 AM 64.4 °F - 62.6 °F 94% 29.70 in 5.0 mi SSE 3.5 mph - 0.07 in Rain Heavy Rain
11:55 AM 68.0 °F - 66.2 °F 94% 29.68 in 10.0 mi South 13.8 mph 19.6 mph 0.07 in   Overcast
12:15 PM 69.8 °F - 66.2 °F 88% 29.66 in 7.0 mi South 13.8 mph 21.9 mph N/A   Overcast
12:35 PM 71.6 °F - 64.4 °F 78% 29.64 in 7.0 mi SSW 13.8 mph 28.8 mph N/A   Overcast
12:55 PM 73.4 °F - 64.4 °F 73% 29.62 in 10.0 mi South 17.3 mph 32.2 mph N/A   Overcast
1:15 PM 73.4 °F - 64.4 °F 73% 29.61 in 7.0 mi SSW 19.6 mph 32.2 mph N/A   Overcast
1:35 PM 73.4 °F - 64.4 °F 73% 29.60 in 7.0 mi SSW 20.7 mph 31.1 mph N/A   Mostly Cloudy
1:55 PM 75.2 °F - 64.4 °F 69% 29.58 in 5.0 mi SSW 24.2 mph 36.8 mph N/A   Haze
2:15 PM 73.4 °F - 64.4 °F 73% 29.57 in 7.0 mi SSW 21.9 mph 35.7 mph N/A   Overcast
2:35 PM 73.4 °F - 64.4 °F 73% 29.58 in 7.0 mi SSW 20.7 mph 29.9 mph N/A   Overcast
2:55 PM 73.4 °F - 64.4 °F 73% 29.58 in 7.0 mi SSW 18.4 mph 24.2 mph N/A   Scattered Clouds
3:15 PM 73.4 °F - 62.6 °F 69% 29.58 in 7.0 mi SSW 21.9 mph 29.9 mph N/A   Clear
3:35 PM 73.4 °F - 60.8 °F 65% 29.58 in 10.0 mi SW 20.7 mph 25.3 mph N/A   Clear
3:55 PM 71.6 °F - 60.8 °F 69% 29.59 in 7.0 mi SSW 15.0 mph 23.0 mph N/A   Clear
4:15 PM 71.6 °F - 62.6 °F 73% 29.59 in 7.0 mi SW 13.8 mph 18.4 mph N/A   Clear
4:35 PM 73.4 °F - 62.6 °F 69% 29.58 in 7.0 mi SSW 10.4 mph 18.4 mph N/A   Clear
5:15 PM 73.4 °F - 62.6 °F 69% 29.58 in 7.0 mi SSW 11.5 mph - N/A   Scattered Clouds
5:35 PM 71.6 °F - 62.6 °F 73% 29.57 in 7.0 mi SSW 12.7 mph 19.6 mph N/A   Clear
6:15 PM 69.8 °F - 59.0 °F 68% 29.58 in 7.0 mi SSW 9.2 mph - N/A   Clear
6:35 PM 68.0 °F - 59.0 °F 73% 29.59 in 10.0 mi SSW 6.9 mph - N/A   Clear
7:15 PM 66.2 °F - 59.0 °F 78% 29.62 in 10.0 mi SSW 6.9 mph - N/A   Clear
7:35 PM 66.2 °F - 59.0 °F 78% 29.63 in 10.0 mi SSW 5.8 mph - N/A   Clear
8:15 PM 64.4 °F - 57.2 °F 77% 29.64 in 10.0 mi SW 3.5 mph - N/A   Clear
8:35 PM 62.6 °F - 55.4 °F 77% 29.64 in 10.0 mi SSW 4.6 mph - N/A   Clear
8:55 PM 64.4 °F - 55.4 °F 73% 29.65 in 10.0 mi SSW 6.9 mph - N/A   Clear
9:15 PM 62.6 °F - 55.4 °F 77% 29.66 in 10.0 mi SW 5.8 mph - N/A   Clear
9:35 PM 60.8 °F - 55.4 °F 82% 29.67 in 7.0 mi SW 4.6 mph - N/A   Clear
9:55 PM 62.6 °F - 55.4 °F 77% 29.68 in 10.0 mi SW 4.6 mph - N/A   Clear
10:15 PM 60.8 °F - 55.4 °F 82% 29.69 in 10.0 mi NNW 6.9 mph - N/A   Clear
10:35 PM 57.2 °F - 55.4 °F 94% 29.70 in 7.0 mi NNW 5.8 mph - N/A   Scattered Clouds
10:55 PM 57.2 °F - 53.6 °F 88% 29.71 in 5.0 mi Calm Calm - N/A   Mostly Cloudy
11:15 PM 57.2 °F - 53.6 °F 88% 29.70 in 7.0 mi North 4.6 mph - N/A   Overcast
11:35 PM 57.2 °F - 53.6 °F 88% 29.71 in 7.0 mi Calm Calm - N/A   Overcast
11:55 PM 55.4 °F - 53.6 °F 94% 29.71 in 7.0 mi Calm Calm - N/A   Overcast